Eastover, SC

5:12 AM EST on December 18, 2017 (GMT -0500)
McEntire Angs

Weather History for KMMT - January, 2013

Change the Weather History Date:

Monday, January 7, 2013

  Actual Average Record
Temperature  
Mean Temperature 42 °F -  
Max Temperature 54 °F 56 °F 72 °F (2012)
Min Temperature 29 °F 34 °F 11 °F (2014)
Degree Days  
Heating Degree Days 24    
Moisture  
Dew Point 32 °F    
Average Humidity 86    
Maximum Humidity 100    
Minimum Humidity 40    
Precipitation  
Precipitation 0.00 in - - ()
Sea Level Pressure  
Sea Level Pressure 30.31 in    
Wind  
Wind Speed 3 mph (North)    
Max Wind Speed 9 mph    
Max Gust Speed -    
Visibility 6 miles    
Events Fog    
Averages and records for this station are not official NWS values.
T = Trace of Precipitation, MM = Missing Value Source: NWS Daily Summary

Daily Weather History Graph

Daily Weather History Graph

Search for Another Location

Airport or City:

Trip Planner

Search our weather history database for the weather conditions in past years. The results will help you decide how hot, cold, wet, or windy it might be!

Date:

Astronomy

Jan. 07, 2013 Rise Set
Actual Time 7:29 AM EST 5:30 PM EST
Civil Twilight 7:01 AM EST 5:57 PM EST
Nautical Twilight 6:30 AM EST 6:28 PM EST
Astronomical Twilight 6:00 AM EST 6:59 PM EST
Moon 2:54 AM EST (1/7) 1:37 PM EST (1/7)
Length of Visible Light 10h 56m
Length of Day
10h 01m
Waning Crescent, 23% of the Moon is Illuminated
Jan 7
Waning Crescent
Jan 11
New
Jan 18
First Quarter
Jan 26
Full
Feb 3
Last Quarter

Hourly Weather History & Observations

Time (EST) Temp. Windchill Dew Point Humidity Pressure Visibility Wind Dir Wind Speed Gust Speed Precip Events Conditions
12:55 AM 36.7 °F 32.0 °F 35.6 °F 96% 30.22 in 10.0 mi NW 5.8 mph - N/A   Clear
1:55 AM 35.4 °F 32.6 °F 33.4 °F 92% 30.24 in 10.0 mi West 3.5 mph - N/A   Clear
2:55 AM 36.5 °F - 35.8 °F 97% 30.24 in 10.0 mi Calm Calm - N/A   Partly Cloudy
3:29 AM 33.8 °F - 33.8 °F 100% 30.25 in 2.0 mi Calm Calm - N/A   Clear
3:30 AM 33.8 °F - 33.8 °F 100% 30.25 in 1.5 mi Calm Calm - N/A   Clear
3:31 AM 33.8 °F - 33.8 °F 100% 30.25 in 1.2 mi Calm Calm - N/A   Clear
3:32 AM 33.8 °F - 32.0 °F 93% 30.25 in 1.0 mi Calm Calm - N/A   Clear
3:35 AM 33.8 °F - 33.8 °F 100% 30.25 in 0.8 mi Calm Calm - N/A   Clear
3:36 AM 33.8 °F - 33.8 °F 100% 30.25 in 0.8 mi Calm Calm - N/A   Clear
3:38 AM 33.8 °F - 33.8 °F 100% 30.25 in 1.0 mi Calm Calm - N/A   Clear
3:40 AM 33.8 °F - 33.8 °F 100% 30.25 in 1.2 mi Calm Calm - N/A   Clear
3:41 AM 33.8 °F - 33.8 °F 100% 30.25 in 1.0 mi Calm Calm - N/A   Clear
3:46 AM 32.0 °F - 32.0 °F 100% 30.26 in 0.8 mi Calm Calm - N/A   Clear
3:49 AM 32.0 °F - 32.0 °F 100% 30.26 in 0.5 mi Calm Calm - N/A Fog Fog
3:54 AM 32.0 °F - 32.0 °F 100% 30.26 in 0.5 mi Calm Calm - N/A Fog Light Freezing Fog
3:55 AM 31.8 °F - 31.5 °F 99% 30.26 in 0.5 mi Calm Calm - N/A Fog Light Freezing Fog
4:03 AM 32.0 °F 28.7 °F 32.0 °F 100% 30.25 in 0.5 mi NNW 3.5 mph - N/A Fog Fog
4:06 AM 32.0 °F 27.5 °F 32.0 °F 100% 30.26 in 0.8 mi NNW 4.6 mph - N/A   Clear
4:09 AM 32.0 °F 27.5 °F 32.0 °F 100% 30.25 in 1.0 mi NW 4.6 mph - N/A   Clear
4:22 AM 32.0 °F 28.7 °F 32.0 °F 100% 30.25 in 1.0 mi NW 3.5 mph - N/A   Clear
4:23 AM 32.0 °F 28.7 °F 32.0 °F 100% 30.25 in 1.2 mi NW 3.5 mph - N/A   Clear
4:24 AM 32.0 °F 28.7 °F 32.0 °F 100% 30.25 in 1.5 mi NW 3.5 mph - N/A   Clear
4:25 AM 32.0 °F 28.7 °F 32.0 °F 100% 30.25 in 1.8 mi NW 3.5 mph - N/A   Clear
4:26 AM 32.0 °F 28.7 °F 32.0 °F 100% 30.26 in 2.0 mi NW 3.5 mph - N/A   Clear
4:28 AM 32.0 °F 28.7 °F 32.0 °F 100% 30.26 in 3.0 mi NW 3.5 mph - N/A   Clear
4:49 AM 32.0 °F 28.7 °F 32.0 °F 100% 30.26 in 2.5 mi West 3.5 mph - N/A   Clear
4:54 AM 32.0 °F 28.7 °F 32.0 °F 100% 30.27 in 3.0 mi WNW 3.5 mph - N/A   Clear
4:55 AM 31.6 °F 28.3 °F 31.5 °F 99% 30.27 in 3.0 mi WNW 3.5 mph - N/A   Clear
5:23 AM 32.0 °F 28.7 °F 32.0 °F 100% 30.27 in 10.0 mi WNW 3.5 mph - N/A Fog Patches of Fog
5:55 AM 32.0 °F 28.7 °F 31.8 °F 99% 30.29 in 10.0 mi WNW 3.5 mph - N/A Fog Patches of Fog
6:55 AM 29.1 °F 25.4 °F 28.8 °F 99% 30.32 in 10.0 mi NW 3.5 mph - N/A Fog Patches of Fog
7:55 AM 31.3 °F - 31.1 °F 99% 30.35 in 10.0 mi Calm Calm - N/A   Mostly Cloudy
8:55 AM 36.5 °F - 36.1 °F 99% 30.38 in 10.0 mi Calm Calm - N/A   Mostly Cloudy
9:55 AM 43.9 °F 39.9 °F 32.5 °F 64% 30.41 in 10.0 mi NNE 6.9 mph - N/A   Scattered Clouds
10:55 AM 46.9 °F - 32.7 °F 58% 30.42 in 10.0 mi NE 6.9 mph - N/A   Scattered Clouds
10:58 AM 46.4 °F 42.9 °F 32.0 °F 57% 30.42 in 10.0 mi Variable 6.9 mph - N/A   Light Drizzle
11:04 AM 48.2 °F - 33.8 °F 58% 30.42 in 10.0 mi NNE 9.2 mph - N/A   Clear
11:07 AM 48.2 °F - 32.0 °F 54% 30.42 in 10.0 mi NE 9.2 mph - N/A   Partly Cloudy
11:55 AM 50.2 °F - 32.5 °F 51% 30.41 in 10.0 mi NNE 8.1 mph - N/A   Partly Cloudy
12:55 PM 52.2 °F - 31.5 °F 45% 30.38 in 10.0 mi Variable 3.5 mph - N/A   Partly Cloudy
1:55 PM 54.5 °F - 31.3 °F 41% 30.37 in 10.0 mi East 6.9 mph - N/A   Partly Cloudy
2:55 PM 54.9 °F - 30.6 °F 40% 30.36 in 10.0 mi NE 9.2 mph - N/A   Partly Cloudy
3:55 PM 54.7 °F - 30.6 °F 40% 30.37 in 10.0 mi East 8.1 mph - N/A   Scattered Clouds
4:55 PM 50.7 °F - 31.5 °F 48% 30.38 in 10.0 mi NE 3.5 mph - N/A   Mostly Cloudy
5:55 PM 47.7 °F - 31.6 °F 54% 30.38 in 10.0 mi NE 4.6 mph - N/A   Scattered Clouds
6:55 PM 42.6 °F 40.9 °F 32.0 °F 66% 30.41 in 10.0 mi NNE 3.5 mph - N/A   Scattered Clouds
7:55 PM 37.9 °F 35.5 °F 33.1 °F 83% 30.41 in 10.0 mi NNE 3.5 mph - N/A   Mostly Cloudy
8:55 PM 37.0 °F - 33.4 °F 87% 30.40 in 10.0 mi Calm Calm - N/A   Mostly Cloudy
9:55 PM 35.8 °F - 32.9 °F 89% 30.41 in 10.0 mi Calm Calm - N/A   Scattered Clouds
10:55 PM 38.5 °F 35.0 °F 31.6 °F 76% 30.40 in 10.0 mi NE 4.6 mph - N/A   Partly Cloudy
11:55 PM 37.0 °F 33.3 °F 31.1 °F 79% 30.40 in 10.0 mi NE 4.6 mph - N/A   Clear